Fort Campbell, KY

10:36 AM CDT on July 28, 2017 (GMT -0500)
Campbell Army Air Field

Weather History for KHOP - July, 2013

Change the Weather History Date:

Wednesday, July 10, 2013

  Actual Average Record
Temperature  
Mean Temperature 82 °F -  
Max Temperature 90 °F 85 °F 95 °F (2000)
Min Temperature 74 °F 66 °F 60 °F (1996)
Cooling Degree Days 16    
Growing Degree Days 32 (Base 50)    
Moisture  
Dew Point 74 °F    
Average Humidity 81    
Maximum Humidity 100    
Minimum Humidity 65    
Precipitation  
Precipitation 0.00 in - - ()
Sea Level Pressure  
Sea Level Pressure 29.97 in    
Wind  
Wind Speed 7 mph (SW)    
Max Wind Speed 15 mph    
Max Gust Speed 17 mph    
Visibility 10 miles    
Events Rain , Thunderstorm    
Averages and records for this station are not official NWS values.
T = Trace of Precipitation, MM = Missing Value Source: NWS Daily Summary

Daily Weather History Graph

Daily Weather History Graph

Search for Another Location

Airport or City:

Trip Planner

Search our weather history database for the weather conditions in past years. The results will help you decide how hot, cold, wet, or windy it might be!

Date:

Astronomy

Jul. 10, 2013 Rise Set
Actual Time 5:39 AM CDT 8:10 PM CDT
Civil Twilight 5:09 AM CDT 8:40 PM CDT
Nautical Twilight 4:32 AM CDT 9:17 PM CDT
Astronomical Twilight 3:51 AM CDT 9:58 PM CDT
Moon 7:55 AM CDT (7/10) 9:25 PM CDT (7/10)
Length of Visible Light 15h 30m
Length of Day
14h 30m
Waxing Crescent, 5% of the Moon is Illuminated
Jul 10
Waxing Crescent
Jul 15
First Quarter
Jul 22
Full
Jul 29
Last Quarter
Aug 6
New

Hourly Weather History & Observations

Time (CDT) Temp. Heat Index Dew Point Humidity Pressure Visibility Wind Dir Wind Speed Gust Speed Precip Events Conditions
12:58 AM 79.0 °F - 77.2 °F 94% 30.02 in 10.0 mi SSW 4.6 mph - N/A   Clear
1:58 AM 78.3 °F - 77.0 °F 96% 30.01 in 10.0 mi SSW 4.6 mph - N/A   Clear
2:58 AM 77.2 °F - 77.0 °F 99% 30.02 in 10.0 mi SSW 3.5 mph - N/A   Partly Cloudy
3:58 AM 77.0 °F - 77.0 °F 100% 30.02 in 10.0 mi SSW 5.8 mph - N/A   Scattered Clouds
4:58 AM 76.3 °F - 76.3 °F 100% 30.01 in 10.0 mi SSW 5.8 mph - N/A   Clear
5:58 AM 75.7 °F - 75.7 °F 100% 30.01 in 10.0 mi SSW 4.6 mph - N/A   Partly Cloudy
6:58 AM 77.9 °F - 76.8 °F 96% 30.00 in 10.0 mi SSW 10.4 mph - N/A   Clear
7:58 AM 81.1 °F 87.6 °F 75.9 °F 84% 30.01 in 10.0 mi SSW 10.4 mph - N/A   Clear
8:58 AM 83.5 °F 90.9 °F 74.7 °F 75% 30.02 in 10.0 mi SW 12.7 mph - N/A   Partly Cloudy
9:56 AM 86.0 °F 93.4 °F 73.4 °F 66% 30.00 in 10.0 mi West 9.2 mph - N/A   Partly Cloudy
10:56 AM 84.2 °F 90.9 °F 73.4 °F 70% 30.00 in 10.0 mi SW 15.0 mph - N/A   Partly Cloudy
11:56 AM 84.2 °F 94.1 °F 77.0 °F 79% 30.01 in 10.0 mi SW 9.2 mph - N/A   Scattered Clouds
12:56 PM 87.8 °F 97.6 °F 75.2 °F 66% 30.01 in 10.0 mi WSW 12.7 mph - N/A   Scattered Clouds
2:49 PM 82.4 °F 86.3 °F 69.8 °F 66% 29.94 in 10.0 mi WNW 13.8 mph - N/A Rain Light Rain
2:58 PM 81.3 °F 85.6 °F 71.4 °F 72% 29.92 in 10.0 mi NW 5.8 mph - 0.00 in Rain Light Rain
3:04 PM 80.6 °F 84.6 °F 71.6 °F 74% 29.92 in 10.0 mi NW 4.6 mph - N/A   Partly Cloudy
3:58 PM 88.3 °F 101.1 °F 77.4 °F 70% 29.88 in 10.0 mi West 6.9 mph - 0.00 in Thunderstorm Partly Cloudy
4:58 PM 88.3 °F 98.4 °F 75.2 °F 65% 29.90 in 10.0 mi NNE 12.7 mph 17.3 mph N/A   Partly Cloudy
5:58 PM 81.9 °F 86.2 °F 71.4 °F 70% 29.91 in 10.0 mi ENE 9.2 mph - N/A   Clear
6:58 PM 80.6 °F 84.6 °F 71.6 °F 74% 29.90 in 10.0 mi NE 9.2 mph - N/A   Clear
7:58 PM 78.6 °F - 69.6 °F 74% 29.94 in 10.0 mi ENE 5.8 mph - N/A   Clear
8:58 PM 76.5 °F - 70.7 °F 82% 29.95 in 10.0 mi NE 3.5 mph - N/A   Clear
9:58 PM 76.5 °F - 71.8 °F 85% 29.97 in 10.0 mi ESE 4.6 mph - N/A   Mostly Cloudy
10:58 PM 76.3 °F - 71.6 °F 85% 29.97 in 10.0 mi ESE 1.2 mph - N/A   Clear
11:58 PM 74.8 °F - 72.7 °F 93% 29.96 in 10.0 mi Calm Calm - N/A   Clear